Tracking 28126 objects as of 1-Oct-2023
HD Live streaming from Space Station
objects crossing your sky now

DELTA 1 DEB

Track DELTA 1 DEB now!
10-day predictions


NORAD ID: 10845
Int'l Code: 1976-077CR
Perigee: 1,502.5 km
Apogee: 1,784.6 km
Inclination: 102.3 °
Period: 119.0 minutes
Semi major axis: 8014 km
RCS: 0.0199 m2 (small)
Launch date: July 29, 1976
Source: United States (US)
Launch site: AIR FORCE WESTERN TEST RANGE (AFWTR)

Note: This is SATELLITE DEBRIS
Your satellite tracking list
Your tracking list is empty




NASA's NSSDC Master Catalog

Two Line Element Set (TLE):
1 10845U 76077CR  23271.84272998 -.00000087  00000-0 -47875-3 0  9990
2 10845 102.2761  41.0965 0176016 129.6828  22.1491 12.10000463 83727
Source of the keplerian elements: AFSPC